period_start,C,m1,H,J0,J1,J2,J3,J4,J5,JA,JB,JC,JD,JJ,JK,JN,#
2018-02-10 00:03:41,0.26,14.28,0.00,19.18,22.59,25.93,14.34,50.83,1029.81,2039.94,933.05,1129.09,1292.24,599.88,611.46,44.59,0000 0000 0000 0000 000000
2018-02-10 00:08:42,0.19,14.29,0.00,19.18,22.59,25.92,14.34,50.98,1029.81,2039.94,932.37,1128.79,1291.77,599.91,611.56,44.64,0000 0000 0000 0000 000000
2018-02-10 00:13:44,0.17,14.30,0.00,19.20,22.60,25.93,14.26,50.98,1029.80,2039.95,931.78,1128.05,1291.03,599.48,611.16,44.69,0000 0000 0000 0000 000000
2018-02-10 00:18:45,0.19,14.31,0.00,19.19,22.61,25.95,14.36,51.00,1029.80,2039.90,931.02,1127.71,1290.38,599.95,611.63,44.74,0000 0000 0000 0000 000000
2018-02-10 00:23:47,0.19,14.32,0.00,19.20,22.62,25.98,14.46,51.13,1029.80,2039.91,930.25,1127.04,1289.92,600.31,611.91,44.79,0000 0000 0000 0000 000000
2018-02-10 00:28:48,0.21,14.33,0.00,19.20,22.62,25.94,14.37,51.02,1029.80,2039.87,929.68,1126.57,1289.09,599.93,611.49,44.84,0000 0000 0000 0000 000000
2018-02-10 00:33:49,0.15,14.34,0.00,19.21,22.62,25.93,14.39,50.99,1029.79,2039.89,928.97,1126.01,1288.60,600.17,611.78,44.90,0000 0000 0000 0000 000000
2018-02-10 00:38:50,0.24,14.35,0.00,19.22,22.62,25.94,14.31,50.92,1029.79,2039.89,928.12,1125.47,1287.99,600.20,611.76,44.95,0000 0000 0000 0000 000000
2018-02-10 00:43:52,0.19,14.36,0.00,19.24,22.62,25.95,14.28,50.86,1029.74,2039.86,927.43,1124.99,1287.17,599.76,611.20,45.00,0000 0000 0000 0000 000000
2018-02-10 00:48:53,0.27,14.37,0.00,19.24,22.62,25.95,14.39,50.99,1029.74,2039.90,926.64,1124.24,1286.62,600.09,611.69,45.05,0000 0000 0000 0000 000000
2018-02-10 00:53:55,0.13,14.38,0.00,19.24,22.63,25.96,14.33,50.86,1029.70,2039.92,925.88,1123.79,1285.95,600.20,611.58,45.10,0000 0000 0000 0000 000000
2018-02-10 00:58:56,0.23,14.40,0.00,19.26,22.64,25.97,14.43,51.03,1029.64,2039.76,925.04,1123.04,1285.11,600.20,611.50,45.15,0000 0000 0000 0000 000000
2018-02-10 01:03:57,0.26,14.40,0.00,19.27,22.64,25.98,14.39,50.96,1029.56,2039.76,924.16,1122.55,1284.47,599.97,611.24,45.20,0000 0000 0000 0000 000000
2018-02-10 01:08:59,0.19,14.42,0.00,19.28,22.64,25.98,14.29,50.82,1029.51,2039.73,923.39,1121.96,1283.81,599.82,610.92,45.25,0000 0000 0000 0000 000000
2018-02-10 01:14:00,0.23,14.43,0.00,19.28,22.64,25.97,14.32,50.89,1029.34,2039.62,922.60,1121.17,1283.03,599.92,611.18,45.30,0000 0000 0000 0000 000000
2018-02-10 01:19:01,0.21,14.44,0.00,19.28,22.64,25.99,14.33,51.01,1029.32,2039.60,921.81,1120.72,1282.23,599.53,610.67,45.35,0000 0000 0000 0000 000000
2018-02-10 01:24:02,0.23,14.45,0.00,19.30,22.64,25.97,14.44,50.91,1029.31,2039.61,920.91,1120.01,1281.53,600.13,611.43,45.40,0000 0000 0000 0000 000000
2018-02-10 01:29:04,0.23,14.47,0.00,19.31,22.64,25.98,14.31,50.95,1029.31,2039.53,920.02,1119.27,1280.88,599.65,610.74,45.45,0000 0000 0000 0000 000000
2018-02-10 01:34:05,0.24,14.48,0.00,19.32,22.65,25.97,14.36,51.07,1029.31,2039.36,919.11,1118.67,1280.03,599.87,610.97,45.50,0000 0000 0000 0000 000000
2018-02-10 01:39:06,0.26,14.49,0.00,19.32,22.65,25.99,14.39,51.02,1029.30,2039.41,918.13,1117.95,1279.19,599.95,611.01,45.55,0000 0000 0000 0000 000000
2018-02-10 01:44:08,0.30,14.50,0.00,19.30,22.65,26.00,14.43,50.95,1029.25,2039.46,917.15,1117.13,1278.45,600.36,611.43,45.60,0000 0000 0000 0000 000000
2018-02-10 01:49:09,0.30,14.52,0.00,19.30,22.67,26.00,14.39,51.07,1029.01,2039.47,916.19,1116.45,1277.62,600.05,610.95,45.65,0000 0000 0000 0000 000000
2018-02-10 01:54:10,0.19,14.53,0.00,19.31,22.67,26.03,14.26,50.92,1029.00,2039.31,915.22,1115.81,1276.83,599.41,610.27,45.70,0000 0000 0000 0000 000000
2018-02-10 01:59:12,0.27,14.55,0.00,19.33,22.67,26.00,14.31,50.99,1028.92,2039.28,914.32,1115.03,1275.99,600.00,610.79,45.75,0000 0000 0000 0000 000000
2018-02-10 02:04:13,0.28,14.56,0.00,19.35,22.68,26.02,14.39,51.02,1028.93,2039.26,913.38,1114.21,1275.11,600.15,610.80,45.80,0000 0000 0000 0000 000000
2018-02-10 02:09:15,0.30,14.57,0.00,19.37,22.69,26.01,14.41,51.01,1028.92,2039.19,912.47,1113.58,1274.26,600.45,611.16,45.86,0000 0000 0000 0000 000000
2018-02-10 02:14:16,0.22,14.58,0.00,19.39,22.69,26.02,14.37,51.06,1028.90,2039.27,911.57,1112.95,1273.52,599.76,610.37,45.91,0000 0000 0000 0000 000000
2018-02-10 02:19:17,0.22,14.60,0.00,19.39,22.70,26.02,14.35,51.08,1029.00,2039.16,910.72,1112.12,1272.80,600.38,611.13,45.96,0000 0000 0000 0000 000000
2018-02-10 02:24:19,0.15,14.61,0.00,19.42,22.71,26.04,14.37,50.98,1028.94,2039.09,910.00,1111.71,1272.03,599.86,610.47,46.01,0000 0000 0000 0000 000000
2018-02-10 02:29:20,0.25,14.62,0.00,19.41,22.72,26.03,14.33,51.10,1028.95,2039.10,909.17,1111.03,1271.37,599.84,610.51,46.06,0000 0000 0000 0000 000000
2018-02-10 02:34:21,0.22,14.63,0.00,19.39,22.72,26.06,14.31,51.08,1028.87,2039.05,908.54,1110.53,1270.83,599.75,610.41,46.11,0000 0000 0000 0000 000000
2018-02-10 02:39:22,0.12,14.64,0.00,19.39,22.74,26.06,14.31,51.02,1028.83,2039.06,907.93,1110.00,1270.06,599.85,610.55,46.16,0000 0000 0000 0000 000000
2018-02-10 02:44:24,0.27,14.65,0.00,19.42,22.74,26.06,14.26,51.03,1028.83,2039.02,907.10,1109.37,1269.50,599.65,610.22,46.21,0000 0000 0000 0000 000000
2018-02-10 02:49:25,0.15,14.66,0.00,19.44,22.76,26.05,14.31,50.98,1028.83,2039.02,906.48,1108.96,1268.93,599.81,610.26,46.26,0000 0000 0000 0000 000000
2018-02-10 02:54:27,0.26,14.67,0.00,19.46,22.77,26.06,14.35,51.06,1028.83,2039.02,905.76,1108.17,1268.08,600.24,610.78,46.31,0000 0000 0000 0000 000000
2018-02-10 02:59:28,0.20,14.68,0.00,19.46,22.77,26.08,14.36,51.10,1028.83,2039.00,904.92,1107.75,1267.43,599.76,610.13,46.36,0000 0000 0000 0000 000000
2018-02-10 03:04:30,0.24,14.69,0.00,19.47,22.79,26.10,14.33,51.13,1028.83,2039.00,904.06,1107.01,1266.72,599.81,610.21,46.41,0000 0000 0000 0000 000000
2018-02-10 03:09:31,0.28,14.71,0.00,19.51,22.79,26.09,14.38,51.12,1028.83,2039.00,903.18,1106.27,1265.93,600.40,610.81,46.46,0000 0000 0000 0000 000000
2018-02-10 03:14:33,0.26,14.72,0.00,19.52,22.80,26.11,14.33,51.09,1028.82,2039.00,902.28,1105.71,1265.08,600.16,610.40,46.51,0000 0000 0000 0000 000000
2018-02-10 03:19:34,0.26,14.73,0.00,19.52,22.82,26.11,14.31,51.08,1028.82,2039.00,901.34,1105.00,1264.25,599.79,610.34,46.56,0000 0000 0000 0000 000000
2018-02-10 03:24:35,0.29,14.74,0.00,19.54,22.82,26.13,14.36,50.98,1028.82,2039.00,900.47,1104.22,1263.56,599.90,610.21,46.61,0000 0000 0000 0000 000000
2018-02-10 03:29:36,0.17,14.76,0.00,19.54,22.83,26.15,14.30,50.88,1028.82,2039.00,899.72,1103.76,1262.87,600.20,610.44,46.66,0000 0000 0000 0000 000000
2018-02-10 03:34:38,0.20,14.77,0.00,19.54,22.84,26.16,14.33,51.11,1028.82,2038.99,898.94,1103.03,1262.06,600.11,610.44,46.71,0000 0000 0000 0000 000000
2018-02-10 03:39:39,0.28,14.78,0.00,19.56,22.84,26.16,14.34,50.95,1028.81,2038.99,898.10,1102.54,1261.43,599.78,609.91,46.77,0000 0000 0000 0000 000000
2018-02-10 03:44:40,0.21,14.79,0.00,19.58,22.85,26.17,14.30,51.07,1028.75,2038.99,897.27,1101.94,1260.74,599.90,610.10,46.82,0000 0000 0000 0000 000000
2018-02-10 03:49:42,0.28,14.81,0.00,19.62,22.87,26.18,14.30,50.98,1028.72,2038.98,896.42,1101.13,1259.98,600.14,610.25,46.87,0000 0000 0000 0000 000000
2018-02-10 03:54:43,0.25,14.82,0.00,19.64,22.87,26.19,14.34,51.10,1028.67,2038.98,895.70,1100.59,1259.13,599.98,609.91,46.92,0000 0000 0000 0000 000000
2018-02-10 03:59:44,0.18,14.83,0.00,19.65,22.87,26.19,14.29,51.10,1028.69,2038.97,894.86,1099.97,1258.44,599.80,609.79,46.97,0000 0000 0000 0000 000000
2018-02-10 04:04:45,0.25,14.84,0.00,19.66,22.89,26.22,14.35,51.04,1028.65,2038.97,894.02,1099.18,1257.76,600.36,610.40,47.02,0000 0000 0000 0000 000000
2018-02-10 04:09:46,0.23,14.85,0.00,19.69,22.89,26.22,14.29,51.02,1028.59,2038.97,893.17,1098.75,1257.01,599.72,609.52,47.07,0000 0000 0000 0000 000000
2018-02-10 04:14:47,0.27,14.87,0.00,19.69,22.91,26.24,14.42,51.02,1028.51,2038.97,892.36,1098.03,1256.19,599.88,609.79,47.12,0000 0000 0000 0000 000000
2018-02-10 04:19:49,0.28,14.88,0.00,19.70,22.92,26.23,14.35,51.03,1028.41,2038.92,891.57,1097.29,1255.49,600.31,610.10,47.17,0000 0000 0000 0000 000000
2018-02-10 04:24:50,0.14,14.89,0.00,19.69,22.93,26.25,14.39,51.20,1028.36,2038.77,890.76,1096.81,1254.80,600.06,609.92,47.22,0000 0000 0000 0000 000000
2018-02-10 04:29:51,0.19,14.90,0.00,19.71,22.94,26.27,14.41,51.22,1028.36,2038.66,890.00,1096.07,1254.04,600.32,610.02,47.27,0000 0000 0000 0000 000000
2018-02-10 04:34:52,0.25,14.91,0.00,19.72,22.95,26.27,14.26,51.04,1028.36,2038.50,889.15,1095.61,1253.34,599.97,609.71,47.32,0000 0000 0000 0000 000000
2018-02-10 04:39:54,0.16,14.92,0.00,19.72,22.97,26.29,14.31,51.14,1028.34,2038.17,888.38,1094.99,1252.69,599.77,609.46,47.37,0000 0000 0000 0000 000000
2018-02-10 04:44:55,0.19,14.93,0.00,19.76,22.97,26.29,14.33,51.08,1028.34,2038.04,887.77,1094.27,1252.01,600.01,609.53,47.42,0000 0000 0000 0000 000000
2018-02-10 04:49:57,0.18,14.94,0.00,19.77,22.99,26.31,14.37,51.00,1028.33,2038.03,887.00,1093.89,1251.23,600.31,609.87,47.47,0000 0000 0000 0000 000000
2018-02-10 04:54:58,0.27,14.95,0.00,19.78,22.99,26.33,14.32,51.08,1028.30,2038.01,886.15,1093.08,1250.74,600.22,609.72,47.52,0000 0000 0000 0000 000000
2018-02-10 05:00:00,0.22,14.96,0.00,19.81,23.00,26.32,14.36,51.16,1028.32,2038.03,885.50,1092.69,1250.02,600.37,609.95,47.57,0000 0000 0000 0000 000000
2018-02-10 05:05:01,0.16,14.97,0.00,19.82,23.02,26.35,14.30,51.10,1028.33,2038.01,884.89,1092.03,1249.29,599.65,609.10,47.62,0000 0000 0000 0000 000000
2018-02-10 05:10:02,0.22,14.99,0.00,19.82,23.02,26.34,14.30,50.99,1028.26,2038.00,884.07,1091.60,1248.85,599.80,608.96,47.67,0000 0000 0000 0000 000000
2018-02-10 05:15:04,0.21,15.00,0.00,19.83,23.04,26.36,14.28,51.17,1028.15,2038.00,883.46,1091.01,1248.06,599.69,609.18,47.72,0000 0000 0000 0000 000000
2018-02-10 05:20:05,0.17,15.00,0.00,19.85,23.04,26.38,14.38,51.02,1027.92,2038.00,882.91,1090.51,1247.62,600.23,609.33,47.77,0000 0000 0000 0000 000000
2018-02-10 05:25:06,0.19,15.02,0.00,19.86,23.07,26.38,14.24,51.02,1027.88,2038.00,882.08,1090.00,1246.97,599.78,608.83,47.83,0000 0000 0000 0000 000000
2018-02-10 05:30:07,0.27,15.02,0.00,19.86,23.07,26.41,14.29,51.06,1027.86,2038.00,881.51,1089.45,1246.16,599.96,609.07,47.88,0000 0000 0000 0000 000000
2018-02-10 05:35:09,0.12,15.04,0.00,19.89,23.08,26.41,14.21,51.08,1027.86,2038.00,880.86,1088.99,1245.69,599.91,608.86,47.93,0000 0000 0000 0000 000000
2018-02-10 05:40:10,0.25,15.05,0.00,19.90,23.09,26.41,14.29,50.95,1027.87,2037.98,880.07,1088.32,1245.02,600.29,609.30,47.98,0000 0000 0000 0000 000000
2018-02-10 05:45:11,0.19,15.06,0.00,19.92,23.10,26.42,14.25,51.01,1027.87,2037.98,879.52,1087.97,1244.32,599.82,608.81,48.03,0000 0000 0000 0000 000000
2018-02-10 05:50:13,0.17,15.07,0.00,19.94,23.12,26.45,14.28,51.17,1027.87,2037.99,878.88,1087.17,1243.92,599.94,608.80,48.08,0000 0000 0000 0000 000000
2018-02-10 05:55:14,0.18,15.08,0.00,19.94,23.12,26.44,14.32,51.17,1027.85,2037.96,878.06,1087.00,1243.10,599.78,608.75,48.13,0000 0000 0000 0000 000000
2018-02-10 06:00:15,0.27,15.09,0.00,19.95,23.14,26.46,14.31,51.18,1027.85,2037.92,877.44,1086.45,1242.58,599.99,608.96,48.18,0000 0000 0000 0000 000000
2018-02-10 06:05:16,0.07,15.10,0.00,19.94,23.15,26.46,14.28,51.06,1027.85,2037.78,876.87,1085.99,1241.98,599.97,608.91,48.23,0000 0000 0000 0000 000000
2018-02-10 06:10:18,0.30,15.11,0.00,19.98,23.17,26.47,14.27,51.06,1027.85,2037.84,876.07,1085.32,1241.20,599.95,608.71,48.28,0000 0000 0000 0000 000000
2018-02-10 06:15:19,0.10,15.11,0.00,20.00,23.18,26.49,14.32,51.17,1027.85,2037.62,875.47,1084.97,1240.82,600.54,609.39,48.33,0000 0000 0000 0000 000000
2018-02-10 06:20:20,0.18,15.13,0.00,20.00,23.19,26.51,14.32,51.11,1027.85,2037.55,874.92,1084.23,1240.05,600.04,608.84,48.38,0000 0000 0000 0000 000000
2018-02-10 06:25:21,0.15,15.13,0.00,20.00,23.20,26.51,14.34,51.18,1027.85,2037.36,874.09,1083.98,1239.58,600.28,609.12,48.43,0000 0000 0000 0000 000000
2018-02-10 06:30:23,0.21,15.14,0.00,20.00,23.22,26.53,14.24,51.03,1027.85,2037.26,873.55,1083.24,1238.99,600.09,608.84,48.48,0000 0000 0000 0000 000000
2018-02-10 06:35:24,0.10,15.15,0.00,20.00,23.22,26.54,14.28,51.08,1027.85,2037.10,872.97,1082.93,1238.19,599.68,608.53,48.53,0000 0000 0000 0000 000000
2018-02-10 06:40:25,0.28,15.16,0.00,20.00,23.24,26.56,14.34,51.02,1027.80,2037.04,872.16,1082.14,1237.74,600.27,609.02,48.58,0000 0000 0000 0000 000000
2018-02-10 06:45:26,0.18,15.17,0.00,20.02,23.24,26.56,14.37,50.99,1027.82,2037.03,871.56,1081.84,1237.02,600.09,608.90,48.63,0000 0000 0000 0000 000000
2018-02-10 06:50:28,0.22,15.18,0.00,20.03,23.27,26.58,14.32,50.98,1027.84,2037.02,870.85,1081.07,1236.25,599.98,608.68,48.68,0000 0000 0000 0000 000000
2018-02-10 06:55:29,0.25,15.19,0.00,20.03,23.27,26.59,14.31,51.01,1027.85,2037.00,870.03,1080.56,1235.69,600.11,608.78,48.74,0000 0000 0000 0000 000000
2018-02-10 07:00:30,0.21,15.21,0.00,20.04,23.28,26.59,14.29,51.08,1027.85,2037.00,869.24,1080.01,1235.01,599.90,608.59,48.79,0000 0000 0000 0000 000000
2018-02-10 07:05:32,0.27,15.22,0.00,20.05,23.29,26.61,14.28,51.00,1027.86,2037.00,868.61,1079.44,1234.32,600.00,608.62,48.84,0000 0000 0000 0000 000000
2018-02-10 07:10:33,0.09,15.23,0.00,20.07,23.29,26.62,14.37,50.97,1027.88,2037.00,867.96,1078.99,1233.80,600.41,608.98,48.89,0000 0000 0000 0000 000000
2018-02-10 07:15:35,0.29,15.24,0.00,20.07,23.30,26.64,14.29,50.92,1027.86,2037.00,867.13,1078.28,1233.04,600.00,608.62,48.94,0000 0000 0000 0000 000000
2018-02-10 07:20:36,0.21,15.25,0.00,20.09,23.32,26.64,14.32,51.09,1027.87,2036.99,866.42,1077.95,1232.39,600.25,608.87,48.99,0000 0000 0000 0000 000000
2018-02-10 07:25:37,0.20,15.26,0.00,20.10,23.32,26.65,14.36,51.13,1027.86,2036.99,865.76,1077.16,1231.95,600.18,608.63,49.04,0000 0000 0000 0000 000000
2018-02-10 07:30:38,0.17,15.27,0.00,20.09,23.32,26.66,14.21,50.89,1027.88,2036.99,865.03,1076.87,1231.13,599.63,608.27,49.09,0000 0000 0000 0000 000000
2018-02-10 07:35:39,0.28,15.28,0.00,20.10,23.33,26.67,14.23,50.96,1027.91,2036.98,864.32,1076.08,1230.69,599.98,608.53,49.14,0000 0000 0000 0000 000000
2018-02-10 07:40:41,0.05,15.29,0.00,20.10,23.34,26.68,14.32,51.09,1027.88,2036.99,863.91,1075.91,1230.03,600.10,608.70,49.19,0000 0000 0000 0000 000000
2018-02-10 07:45:42,0.32,15.31,0.00,20.09,23.34,26.68,14.29,51.02,1027.87,2036.99,863.07,1075.09,1229.38,600.15,608.77,49.24,0000 0000 0000 0000 000000
2018-02-10 07:50:43,0.20,15.31,0.00,20.09,23.35,26.70,14.29,51.06,1027.86,2036.98,862.27,1074.79,1228.91,600.14,608.73,49.29,0000 0000 0000 0000 000000
2018-02-10 07:55:45,0.24,15.33,0.00,20.13,23.37,26.71,14.30,50.97,1027.86,2036.97,861.64,1074.06,1228.09,600.01,608.54,49.34,0000 0000 0000 0000 000000
2018-02-10 08:00:46,0.16,15.33,0.00,20.14,23.37,26.72,14.28,50.98,1027.86,2036.96,861.01,1073.70,1227.62,600.29,608.79,49.39,0000 0000 0000 0000 000000
2018-02-10 08:05:47,0.21,15.35,0.00,20.13,23.37,26.71,14.31,51.06,1027.85,2036.88,860.27,1073.04,1227.00,600.10,608.59,49.44,0000 0000 0000 0000 000000
2018-02-10 08:10:48,0.17,15.35,0.00,20.13,23.37,26.72,14.30,50.99,1027.89,2036.63,859.70,1072.61,1226.26,599.88,608.42,49.49,0000 0000 0000 0000 000000
2018-02-10 08:15:49,0.10,15.36,0.00,20.15,23.39,26.72,14.23,50.99,1027.90,2036.41,859.01,1072.02,1225.79,599.52,608.02,49.54,0000 0000 0000 0000 000000
2018-02-10 08:20:51,0.28,15.37,0.00,20.15,23.39,26.73,14.31,51.11,1027.90,2036.24,858.27,1071.58,1225.05,600.04,608.54,49.59,0000 0000 0000 0000 000000
2018-02-10 08:25:52,0.16,15.38,0.00,20.13,23.39,26.76,14.26,51.06,1028.15,2036.14,857.64,1071.02,1224.52,599.77,608.43,49.64,0000 0000 0000 0000 000000
2018-02-10 08:30:53,0.17,15.39,0.00,20.12,23.40,26.77,14.31,51.17,1028.17,2036.11,856.99,1070.50,1223.99,599.85,608.66,49.69,0000 0000 0000 0000 000000
2018-02-10 08:35:55,0.23,15.40,0.00,20.13,23.42,26.77,14.42,51.05,1028.06,2036.11,856.21,1070.01,1223.23,600.31,608.95,49.75,0000 0000 0000 0000 000000
2018-02-10 08:40:56,0.15,15.41,0.00,20.14,23.42,26.78,14.37,51.03,1027.94,2036.07,855.79,1069.49,1222.84,600.13,608.71,49.80,0000 0000 0000 0000 000000
2018-02-10 08:45:57,0.19,15.42,0.00,20.14,23.42,26.80,14.31,51.13,1028.06,2036.05,855.03,1069.00,1222.05,599.83,608.49,49.85,0000 0000 0000 0000 000000
2018-02-10 08:50:58,0.28,15.43,0.00,20.13,23.43,26.80,14.31,50.98,1028.17,2036.03,854.34,1068.44,1221.62,600.16,608.87,49.90,0000 0000 0000 0000 000000
2018-02-10 08:55:59,0.12,15.44,0.00,20.14,23.44,26.80,14.34,51.08,1028.19,2036.02,853.75,1068.00,1221.00,600.14,608.87,49.95,0000 0000 0000 0000 000000
2018-02-10 09:01:01,0.26,15.45,0.00,20.17,23.45,26.82,14.35,51.00,1028.22,2036.04,853.02,1067.44,1220.33,600.26,608.93,50.00,0000 0000 0000 0000 000000
2018-02-10 09:06:02,0.18,15.47,0.00,20.17,23.45,26.81,14.29,51.05,1028.32,2036.03,852.27,1067.00,1219.87,600.30,608.93,50.05,0000 0000 0000 0000 000000
2018-02-10 09:11:03,0.27,15.48,0.00,20.17,23.45,26.81,14.15,51.07,1028.33,2036.01,851.67,1066.33,1219.07,599.54,608.31,50.10,0000 0000 0000 0000 000000
2018-02-10 09:16:05,0.11,15.49,0.00,20.19,23.46,26.82,14.25,50.83,1028.33,2036.01,851.00,1065.99,1218.65,600.16,608.81,50.15,0000 0000 0000 0000 000000
2018-02-10 09:21:06,0.28,15.50,0.00,20.19,23.47,26.84,14.29,50.96,1028.30,2036.02,850.23,1065.33,1218.02,600.29,608.99,50.20,0000 0000 0000 0000 000000
2018-02-10 09:26:07,0.15,15.50,0.00,20.19,23.47,26.84,14.35,51.02,1028.21,2036.01,849.72,1064.99,1217.38,600.14,608.75,50.25,0000 0000 0000 0000 000000
2018-02-10 09:31:09,0.20,15.52,0.00,20.19,23.47,26.83,14.27,50.98,1028.18,2036.00,849.01,1064.34,1216.95,600.18,608.75,50.30,0000 0000 0000 0000 000000
2018-02-10 09:36:10,0.22,15.53,0.00,20.20,23.49,26.84,14.24,51.09,1028.22,2036.00,848.25,1063.99,1216.13,599.53,608.21,50.35,0000 0000 0000 0000 000000
2018-02-10 09:41:12,0.18,15.54,0.00,20.18,23.50,26.86,14.29,51.07,1028.09,2036.00,847.81,1063.32,1215.81,599.86,608.34,50.40,0000 0000 0000 0000 000000
2018-02-10 09:46:13,0.16,15.55,0.00,20.17,23.50,26.86,14.26,51.16,1028.11,2036.00,847.04,1062.99,1215.05,599.72,608.35,50.45,0000 0000 0000 0000 000000
2018-02-10 09:51:14,0.27,15.56,0.00,20.18,23.52,26.85,14.24,51.09,1027.94,2036.00,846.36,1062.41,1214.81,600.16,608.63,50.50,0000 0000 0000 0000 000000
2018-02-10 09:56:15,0.10,15.57,0.00,20.19,23.52,26.86,14.33,51.10,1027.89,2036.00,845.90,1062.00,1214.07,599.93,608.37,50.55,0000 0000 0000 0000 000000
2018-02-10 10:01:16,0.28,15.58,0.00,20.20,23.53,26.88,14.28,51.16,1027.87,2036.00,845.10,1061.45,1213.65,599.95,608.37,50.60,0000 0000 0000 0000 000000
2018-02-10 10:06:18,0.19,15.59,0.00,20.19,23.54,26.87,14.33,51.13,1027.86,2036.00,844.42,1061.00,1213.02,600.40,608.74,50.66,0000 0000 0000 0000 000000
2018-02-10 10:11:19,0.18,15.60,0.00,20.21,23.55,26.89,14.31,51.22,1027.86,2035.99,843.90,1060.52,1212.54,599.99,608.32,50.71,0000 0000 0000 0000 000000
2018-02-10 10:16:20,0.19,15.61,0.00,20.19,23.55,26.89,14.26,51.10,1027.86,2035.99,843.07,1060.01,1212.01,599.92,608.31,50.76,0000 0000 0000 0000 000000
2018-02-10 10:21:22,0.25,15.62,0.00,20.22,23.56,26.89,14.30,51.17,1027.87,2035.99,842.52,1059.64,1211.41,599.88,608.33,50.81,0000 0000 0000 0000 000000
2018-02-10 10:26:23,0.09,15.63,0.00,20.21,23.57,26.90,14.33,51.23,1027.88,2035.98,842.00,1059.03,1210.98,600.00,608.47,50.86,0000 0000 0000 0000 000000
2018-02-10 10:31:24,0.26,15.64,0.00,20.19,23.57,26.91,14.25,51.30,1027.88,2035.98,841.25,1058.79,1210.26,599.61,607.93,50.91,0000 0000 0000 0000 000000
2018-02-10 10:36:26,0.16,15.65,0.00,20.20,23.58,26.92,14.34,51.17,1028.07,2035.99,840.77,1058.05,1209.91,600.31,608.82,50.96,0000 0000 0000 0000 000000
2018-02-10 10:41:27,0.17,15.66,0.00,20.21,23.59,26.91,14.29,51.24,1028.04,2035.98,840.03,1057.88,1209.12,599.83,608.27,51.01,0000 0000 0000 0000 000000
2018-02-10 10:46:28,0.26,15.67,0.00,20.20,23.60,26.92,14.22,51.17,1027.88,2035.98,839.34,1057.10,1208.84,600.11,608.62,51.06,0000 0000 0000 0000 000000
2018-02-10 10:51:30,0.09,15.68,0.00,20.21,23.60,26.93,14.26,51.28,1027.87,2035.96,838.91,1056.95,1208.06,600.07,608.44,51.11,0000 0000 0000 0000 000000
2018-02-10 10:56:31,0.27,15.69,0.00,20.21,23.60,26.95,14.35,51.13,1027.85,2035.93,838.10,1056.20,1207.81,600.27,608.60,51.16,0000 0000 0000 0000 000000
2018-02-10 11:01:32,0.14,15.69,0.00,20.20,23.61,26.94,14.32,51.20,1027.85,2035.91,837.69,1056.00,1207.05,599.95,608.44,51.21,0000 0000 0000 0000 000000
2018-02-10 11:06:33,0.19,15.70,0.00,20.23,23.62,26.95,14.36,51.14,1027.85,2035.82,837.00,1055.41,1206.72,600.32,608.69,51.26,0000 0000 0000 0000 000000
2018-02-10 11:11:35,0.21,15.72,0.00,20.24,23.62,26.93,14.32,51.30,1027.85,2035.87,836.23,1055.00,1206.03,600.26,608.51,51.31,0000 0000 0000 0000 000000
2018-02-10 11:16:36,0.17,15.72,0.00,20.23,23.62,26.95,14.28,51.14,1027.85,2035.74,835.78,1054.60,1205.66,600.36,608.71,51.36,0000 0000 0000 0000 000000
2018-02-10 11:21:37,0.18,15.74,0.00,20.22,23.62,26.95,14.29,51.22,1027.85,2035.79,835.04,1054.03,1205.03,600.34,608.66,51.41,0000 0000 0000 0000 000000
2018-02-10 11:26:38,0.16,15.74,0.00,20.23,23.62,26.95,14.29,51.27,1027.85,2035.76,834.44,1053.89,1204.72,600.44,608.66,51.46,0000 0000 0000 0000 000000
2018-02-10 11:31:40,0.19,15.75,0.00,20.23,23.62,26.96,14.36,51.30,1027.85,2035.77,833.98,1053.10,1204.04,600.31,608.53,51.51,0000 0000 0000 0000 000000
2018-02-10 11:36:41,0.16,15.76,0.00,20.24,23.63,26.95,14.29,51.12,1027.83,2035.67,833.20,1052.99,1203.69,600.30,608.58,51.56,0000 0000 0000 0000 000000
2018-02-10 11:41:43,0.20,15.77,0.00,20.25,23.64,26.95,14.36,51.27,1027.80,2035.46,832.72,1052.30,1203.02,600.05,608.49,51.61,0000 0000 0000 0000 000000
2018-02-10 11:46:44,0.13,15.78,0.00,20.25,23.64,26.98,14.26,51.14,1027.81,2035.52,832.02,1052.00,1202.77,600.34,608.66,51.66,0000 0000 0000 0000 000000
2018-02-10 11:51:45,0.23,15.79,0.00,20.24,23.65,26.97,14.30,51.25,1027.56,2035.63,831.56,1051.82,1202.04,600.36,608.58,51.72,0000 0000 0000 0000 000000
2018-02-10 11:56:46,0.13,15.80,0.00,20.24,23.65,26.97,14.29,51.19,1027.47,2035.66,831.01,1051.07,1201.87,600.15,608.09,51.77,0000 0000 0000 0000 000000
2018-02-10 12:01:47,0.20,15.80,0.00,20.25,23.65,26.97,14.33,51.19,1027.36,2035.71,830.50,1050.97,1201.07,599.98,607.85,51.82,0000 0000 0000 0000 000000
2018-02-10 12:06:49,0.14,15.81,0.00,20.25,23.65,26.99,14.30,51.26,1027.37,2035.79,829.98,1050.42,1200.94,599.24,607.27,51.87,0000 0000 0000 0000 000000
2018-02-10 12:11:50,0.27,15.83,0.00,20.27,23.65,26.97,14.30,51.11,1027.36,2035.83,829.26,1050.01,1200.22,600.11,608.01,51.92,0000 0000 0000 0000 000000
2018-02-10 12:16:51,0.04,15.83,0.00,20.25,23.65,26.98,14.30,51.21,1027.36,2035.95,828.88,1049.93,1200.00,600.03,608.01,51.97,0000 0000 0000 0000 000000
2018-02-10 12:21:52,0.30,15.84,0.00,20.26,23.65,26.98,14.31,51.38,1027.35,2035.92,828.09,1049.14,1199.43,600.09,607.97,52.02,0000 0000 0000 0000 000000
2018-02-10 12:26:54,0.14,15.85,0.00,20.26,23.65,26.98,14.22,51.20,1027.34,2035.93,827.57,1049.00,1199.00,599.86,607.92,52.07,0000 0000 0000 0000 000000
2018-02-10 12:31:55,0.16,15.86,0.00,20.27,23.65,26.98,14.30,51.36,1027.35,2035.97,826.96,1048.63,1198.68,600.57,608.34,52.12,0000 0000 0000 0000 000000
2018-02-10 12:36:56,0.22,15.87,0.00,20.27,23.65,26.98,14.30,51.27,1027.35,2035.95,826.15,1048.04,1198.03,599.88,607.89,52.17,0000 0000 0000 0000 000000
2018-02-10 12:41:58,0.06,15.88,0.00,20.29,23.65,26.98,14.27,51.18,1027.36,2035.91,825.82,1047.97,1197.80,599.74,607.72,52.22,0000 0000 0000 0000 000000
2018-02-10 12:46:59,0.29,15.89,0.00,20.29,23.66,26.99,14.36,51.30,1027.36,2035.94,825.05,1047.35,1197.07,600.29,608.15,52.27,0000 0000 0000 0000 000000
2018-02-10 12:52:01,0.11,15.90,0.00,20.30,23.67,26.99,14.27,51.23,1027.36,2035.95,824.65,1047.01,1196.96,599.88,607.75,52.32,0000 0000 0000 0000 000000
2018-02-10 12:57:02,0.12,15.91,0.00,20.31,23.67,27.00,14.28,51.22,1027.36,2035.85,824.02,1046.92,1196.23,599.70,607.48,52.37,0000 0000 0000 0000 000000